Location: Te Maire Creek
(41.1333°S, 175.9167°E)
Time: 02:01:20
(UTC+00:00)

Cosmos 2278 - Pass Details

Date: 19 May 2024
Orbit: 837 x 853 km, 71.1° (Epoch: 18 June)

Event Time Altitude Azimuth Distance (km) Brightness Sun altitude
Exits shadow 17:18:39 26° 324° (NW) 1,606 4.9 -23.0°
Maximum altitude 17:21:55 71° 245° (WSW) 904 3.6 -22.4°
Drops below altitude 10° 17:27:39 10° 160° (SSE) 2,495 6.3 -21.3°
Sets 17:30:08 0° 158° (SSE) 3,434 7.0 -20.9°
